When you browse on this site, cookies collect data to enhance your experience and personalize the content and advertising you see.
Visit our Privacy Policy to learn more. By continuing to use the site, you agree to this use of cookies and data.

Previsão horária em Hrazdan

Hoje, 24 Setembro, Quinta-feira

Tempo Temperatura Precipitação Vento Pressão Humidade
00:00 +12°C° 0 mm 1 m/s 613 mmHg 84%
01:00 +12°C° 0 mm 1 m/s 613 mmHg 84%
02:00 +12°C° 0 mm 1 m/s 613 mmHg 84%
03:00 +12°C° 0 mm 1 m/s 613 mmHg 84%
04:00 +11°C° 0 mm 1 m/s 613 mmHg 85%
05:00 +11°C° 0 mm 1 m/s 613 mmHg 85%
06:00 +11°C° 0 mm 1 m/s 613 mmHg 85%
07:00 +13°C° 0 mm 1 m/s 614 mmHg 78%
08:00 +15°C° 0 mm 1 m/s 615 mmHg 71%
09:00 +18°C° 0 mm 1 m/s 616 mmHg 63%
10:00 +20°C° 0.3 mm 1 m/s 616 mmHg 58%
11:00 +20°C° 0.3 mm 2 m/s 616 mmHg 53%
12:00 +21°C° 0.3 mm 2 m/s 616 mmHg 48%
13:00 +21°C° 0.2 mm 2 m/s 616 mmHg 45%
14:00 +23°C° 0.2 mm 2 m/s 616 mmHg 43%
15:00 +23°C° 0.2 mm 2 m/s 616 mmHg 41%
16:00 +20°C° 0.2 mm 2 m/s 615 mmHg 51%
17:00 +18°C° 0.2 mm 2 m/s 614 mmHg 62%
18:00 +16°C° 0.2 mm 1 m/s 613 mmHg 73%
19:00 +15°C° 0.1 mm 1 m/s 613 mmHg 74%
20:00 +15°C° 0.1 mm 2 m/s 614 mmHg 76%
21:00 +14°C° 0.1 mm 2 m/s 614 mmHg 77%
22:00 +14°C° 0.1 mm 2 m/s 614 mmHg 77%
23:00 +14°C° 0.1 mm 1 m/s 614 mmHg 78%

Amanhã, 25 Setembro, Sexta-feira

Tempo Temperatura Precipitação Vento Pressão Humidade
00:00 +13°C° 0.1 mm 1 m/s 613 mmHg 78%
01:00 +13°C° 0.1 mm 1 m/s 613 mmHg 78%
02:00 +13°C° 0.1 mm 1 m/s 613 mmHg 79%
03:00 +13°C° 0.1 mm 2 m/s 613 mmHg 80%
04:00 +13°C° 0 mm 1 m/s 613 mmHg 79%
05:00 +12°C° 0 mm 1 m/s 613 mmHg 78%
06:00 +12°C° 0 mm 1 m/s 613 mmHg 77%
07:00 +14°C° 0 mm 1 m/s 613 mmHg 70%
08:00 +16°C° 0 mm 1 m/s 614 mmHg 63%
09:00 +20°C° 0 mm 1 m/s 615 mmHg 55%
10:00 +20°C° 0.2 mm 2 m/s 615 mmHg 52%
11:00 +21°C° 0.2 mm 2 m/s 615 mmHg 48%
12:00 +23°C° 0.2 mm 2 m/s 615 mmHg 44%
13:00 +23°C° 0.2 mm 2 m/s 615 mmHg 44%
14:00 +23°C° 0.2 mm 2 m/s 614 mmHg 43%
15:00 +23°C° 0.2 mm 2 m/s 614 mmHg 43%
16:00 +20°C° 0.2 mm 2 m/s 613 mmHg 52%
17:00 +18°C° 0.2 mm 2 m/s 612 mmHg 62%
18:00 +16°C° 0.2 mm 2 m/s 612 mmHg 71%
19:00 +15°C° 0.4 mm 2 m/s 612 mmHg 74%
20:00 +15°C° 0.4 mm 2 m/s 612 mmHg 78%
21:00 +14°C° 0.4 mm 2 m/s 612 mmHg 81%
22:00 +14°C° 0.6 mm 2 m/s 612 mmHg 83%
23:00 +13°C° 0.6 mm 2 m/s 612 mmHg 85%

Depois de amanhã, 26 Setembro, Sábado

Tempo Temperatura Precipitação Vento Pressão Humidade
00:00 +13°C° 0.6 mm 2 m/s 612 mmHg 87%
01:00 +13°C° 0.1 mm 2 m/s 612 mmHg 88%
02:00 +13°C° 0.1 mm 2 m/s 611 mmHg 88%
03:00 +12°C° 0.1 mm 2 m/s 611 mmHg 88%
04:00 +12°C° 0 mm 2 m/s 611 mmHg 86%
05:00 +12°C° 0 mm 1 m/s 611 mmHg 84%
06:00 +12°C° 0 mm 1 m/s 611 mmHg 83%
07:00 +14°C° 0.1 mm 1 m/s 612 mmHg 75%
08:00 +16°C° 0.1 mm 1 m/s 612 mmHg 67%
09:00 +19°C° 0.1 mm 1 m/s 613 mmHg 59%
10:00 +20°C° 0.5 mm 1 m/s 613 mmHg 56%
11:00 +19°C° 0.5 mm 2 m/s 613 mmHg 52%
12:00 +20°C° 0.5 mm 3 m/s 613 mmHg 49%
13:00 +21°C° 0.7 mm 3 m/s 613 mmHg 48%
14:00 +21°C° 0.7 mm 2 m/s 613 mmHg 46%
15:00 +21°C° 0.7 mm 2 m/s 613 mmHg 45%
16:00 +19°C° 0.3 mm 2 m/s 612 mmHg 53%
17:00 +17°C° 0.3 mm 2 m/s 612 mmHg 61%
18:00 +16°C° 0.3 mm 1 m/s 611 mmHg 69%
19:00 +15°C° 0.4 mm 1 m/s 612 mmHg 73%
20:00 +14°C° 0.4 mm 2 m/s 612 mmHg 76%
21:00 +14°C° 0.4 mm 2 m/s 612 mmHg 80%
22:00 +14°C° 0.3 mm 2 m/s 612 mmHg 80%
23:00 +14°C° 0.3 mm 2 m/s 612 mmHg 80%

27 Setembro, Domingo

Tempo Temperatura Precipitação Vento Pressão Humidade
00:00 +14°C° 0.3 mm 2 m/s 612 mmHg 79%
01:00 +13°C° 0.1 mm 1 m/s 612 mmHg 79%
02:00 +13°C° 0.1 mm 1 m/s 612 mmHg 79%
03:00 +13°C° 0.1 mm 1 m/s 612 mmHg 79%
04:00 +12°C° 0 mm 1 m/s 612 mmHg 79%
05:00 +12°C° 0 mm 1 m/s 612 mmHg 79%
06:00 +12°C° 0 mm 1 m/s 612 mmHg 80%
07:00 +14°C° 0 mm 1 m/s 613 mmHg 72%
08:00 +16°C° 0 mm 1 m/s 614 mmHg 65%
09:00 +19°C° 0 mm 1 m/s 615 mmHg 57%
10:00 +20°C° 0 mm 1 m/s 615 mmHg 53%
11:00 +20°C° 0 mm 2 m/s 616 mmHg 50%
12:00 +21°C° 0 mm 3 m/s 616 mmHg 46%
13:00 +21°C° 0.1 mm 2 m/s 616 mmHg 46%
14:00 +21°C° 0.1 mm 2 m/s 615 mmHg 46%
15:00 +21°C° 0.1 mm 2 m/s 615 mmHg 46%
16:00 +20°C° 0 mm 2 m/s 615 mmHg 53%
17:00 +19°C° 0 mm 1 m/s 614 mmHg 60%
18:00 +18°C° 0 mm 1 m/s 614 mmHg 67%
19:00 +16°C° 0 mm 1 m/s 614 mmHg 69%
20:00 +15°C° 0 mm 1 m/s 614 mmHg 71%
21:00 +15°C° 0 mm 1 m/s 614 mmHg 74%
22:00 +14°C° 0 mm 1 m/s 614 mmHg 74%
23:00 +14°C° 0 mm 1 m/s 615 mmHg 73%

28 Setembro, Segunda-feira

Tempo Temperatura Precipitação Vento Pressão Humidade
00:00 +14°C° 0 mm 1 m/s 615 mmHg 73%
01:00 +14°C° 0 mm 1 m/s 615 mmHg 72%
02:00 +13°C° 0 mm 1 m/s 615 mmHg 71%
03:00 +13°C° 0 mm 1 m/s 615 mmHg 71%
04:00 +13°C° 0 mm 1 m/s 615 mmHg 70%
05:00 +13°C° 0 mm 1 m/s 615 mmHg 69%
06:00 +12°C° 0 mm 0 m/s 615 mmHg 69%
07:00 +15°C° 0 mm 1 m/s 616 mmHg 63%
08:00 +18°C° 0 mm 1 m/s 617 mmHg 56%
09:00 +20°C° 0 mm 1 m/s 618 mmHg 50%
10:00 +22°C° 0 mm 1 m/s 618 mmHg 47%
11:00 +23°C° 0 mm 1 m/s 618 mmHg 43%
12:00 +24°C° 0 mm 2 m/s 618 mmHg 40%
13:00 +24°C° 0.1 mm 2 m/s 618 mmHg 41%
14:00 +23°C° 0.1 mm 2 m/s 617 mmHg 42%
15:00 +23°C° 0.1 mm 2 m/s 617 mmHg 44%
16:00 +21°C° 0.1 mm 2 m/s 616 mmHg 51%
17:00 +19°C° 0.1 mm 2 m/s 616 mmHg 59%
18:00 +17°C° 0.1 mm 2 m/s 615 mmHg 66%
19:00 +16°C° 0 mm 2 m/s 615 mmHg 68%
20:00 +15°C° 0 mm 2 m/s 615 mmHg 70%
21:00 +15°C° 0 mm 2 m/s 616 mmHg 73%
22:00 +14°C° 0 mm 2 m/s 615 mmHg 74%
23:00 +14°C° 0 mm 2 m/s 615 mmHg 76%

29 Setembro, Terça-feira

Tempo Temperatura Precipitação Vento Pressão Humidade
00:00 +13°C° 0 mm 2 m/s 615 mmHg 78%
01:00 +13°C° 0 mm 2 m/s 615 mmHg 78%
02:00 +12°C° 0 mm 2 m/s 615 mmHg 79%
03:00 +12°C° 0 mm 2 m/s 614 mmHg 79%
04:00 +12°C° 0 mm 1 m/s 614 mmHg 79%
05:00 +11°C° 0 mm 1 m/s 614 mmHg 79%
06:00 +11°C° 0 mm 1 m/s 614 mmHg 79%
07:00 +14°C° 0 mm 1 m/s 615 mmHg 71%
08:00 +16°C° 0 mm 1 m/s 615 mmHg 63%
09:00 +19°C° 0 mm 1 m/s 616 mmHg 55%
10:00 +20°C° 0 mm 1 m/s 616 mmHg 50%
11:00 +21°C° 0 mm 2 m/s 616 mmHg 45%
12:00 +23°C° 0 mm 2 m/s 616 mmHg 41%
13:00 +23°C° 0 mm 2 m/s 616 mmHg 41%
14:00 +23°C° 0 mm 2 m/s 615 mmHg 41%
15:00 +23°C° 0 mm 2 m/s 615 mmHg 41%
16:00 +20°C° 0 mm 2 m/s 614 mmHg 52%
17:00 +18°C° 0 mm 2 m/s 613 mmHg 63%
18:00 +16°C° 0 mm 1 m/s 612 mmHg 73%
19:00 +15°C° 0 mm 2 m/s 612 mmHg 77%
20:00 +14°C° 0 mm 2 m/s 612 mmHg 80%
21:00 +13°C° 0 mm 2 m/s 612 mmHg 84%
22:00 +13°C° 0 mm 2 m/s 612 mmHg 85%
23:00 +13°C° 0 mm 2 m/s 611 mmHg 85%
Mostrar mais